TimeCDT,TemperatureF,Dew PointF,Humidity,Sea Level PressureIn,VisibilityMPH,Wind Direction,Wind SpeedMPH,Gust SpeedMPH,PrecipitationIn,Events,Conditions,WindDirDegrees,DateUTC
12:15 AM,63.5,60.3,89,29.89,10.0,NW,4.6,-,N/A,,Clear,310,2013-09-02 05:15:00
12:35 AM,62.8,59.9,90,29.89,10.0,NW,4.6,-,N/A,,Clear,310,2013-09-02 05:35:00
12:55 AM,62.2,59.5,91,29.89,10.0,NW,4.6,-,N/A,,Clear,310,2013-09-02 05:55:00
1:15 AM,61.7,59.4,92,29.89,10.0,NW,4.6,-,N/A,,Clear,310,2013-09-02 06:15:00
1:35 AM,61.7,59.2,91,29.89,10.0,WNW,4.6,-,N/A,,Clear,300,2013-09-02 06:35:00
1:55 AM,61.3,59.2,93,29.89,10.0,NW,5.8,-,N/A,,Clear,310,2013-09-02 06:55:00
2:15 AM,61.3,59.2,93,29.89,10.0,NW,5.8,-,N/A,,Clear,310,2013-09-02 07:15:00
2:35 AM,60.6,58.8,94,29.89,10.0,West,3.5,-,N/A,,Clear,280,2013-09-02 07:35:00
2:55 AM,59.9,58.6,96,29.89,10.0,West,4.6,-,N/A,,Clear,280,2013-09-02 07:55:00
3:15 AM,59.9,59.0,97,29.90,10.0,West,4.6,-,N/A,,Clear,280,2013-09-02 08:15:00
3:35 AM,59.5,59.0,98,29.90,10.0,WNW,3.5,-,N/A,,Clear,290,2013-09-02 08:35:00
3:55 AM,59.2,58.5,97,29.90,10.0,Calm,Calm,-,N/A,,Clear,0,2013-09-02 08:55:00
4:15 AM,58.6,58.1,98,29.91,10.0,Calm,Calm,-,N/A,,Clear,0,2013-09-02 09:15:00
4:35 AM,57.7,57.7,100,29.91,10.0,WNW,3.5,-,N/A,,Clear,290,2013-09-02 09:35:00
4:55 AM,57.9,57.7,99,29.91,10.0,Calm,Calm,-,N/A,,Clear,0,2013-09-02 09:55:00
5:15 AM,57.7,57.6,99,29.92,10.0,Calm,Calm,-,N/A,,Clear,0,2013-09-02 10:15:00
5:35 AM,57.4,57.4,100,29.92,10.0,Calm,Calm,-,N/A,,Clear,0,2013-09-02 10:35:00
5:55 AM,57.2,57.2,100,29.93,10.0,Calm,Calm,-,N/A,,Clear,0,2013-09-02 10:55:00
6:15 AM,57.0,57.0,100,29.93,10.0,Calm,Calm,-,N/A,,Clear,0,2013-09-02 11:15:00
6:35 AM,56.7,56.7,100,29.94,10.0,Calm,Calm,-,N/A,,Clear,0,2013-09-02 11:35:00
6:55 AM,57.2,57.2,100,29.94,10.0,Calm,Calm,-,N/A,,Clear,0,2013-09-02 11:55:00
7:15 AM,58.5,58.5,100,29.95,10.0,NW,3.5,-,N/A,,Clear,310,2013-09-02 12:15:00
7:35 AM,59.9,59.5,99,29.96,10.0,NW,4.6,-,N/A,,Clear,310,2013-09-02 12:35:00
7:55 AM,61.2,60.6,98,29.96,10.0,NW,4.6,-,N/A,,Clear,310,2013-09-02 12:55:00
8:15 AM,62.8,61.0,94,29.96,10.0,NW,8.1,-,N/A,,Clear,320,2013-09-02 13:15:00
8:35 AM,64.4,61.5,90,29.96,10.0,NW,6.9,-,N/A,,Clear,320,2013-09-02 13:35:00
8:55 AM,65.7,61.7,87,29.97,10.0,NNW,10.4,-,N/A,,Clear,340,2013-09-02 13:55:00
9:15 AM,67.1,62.1,84,29.97,10.0,North,9.2,-,N/A,,Clear,350,2013-09-02 14:15:00
9:35 AM,69.4,62.8,79,29.98,10.0,NNW,9.2,-,N/A,,Scattered Clouds,340,2013-09-02 14:35:00
9:55 AM,71.2,63.0,75,29.99,10.0,NNW,9.2,-,N/A,,Scattered Clouds,330,2013-09-02 14:55:00
10:15 AM,71.4,63.0,75,29.99,10.0,North,9.2,-,N/A,,Scattered Clouds,350,2013-09-02 15:15:00
10:35 AM,72.3,63.3,73,29.99,10.0,North,9.2,-,N/A,,Scattered Clouds,360,2013-09-02 15:35:00
10:55 AM,71.8,62.8,73,29.99,10.0,NW,6.9,-,N/A,,Mostly Cloudy,310,2013-09-02 15:55:00
11:15 AM,74.3,63.3,68,29.99,10.0,North,5.8,-,N/A,,Mostly Cloudy,350,2013-09-02 16:15:00
11:35 AM,74.1,63.3,69,29.99,10.0,NNW,4.6,-,N/A,,Mostly Cloudy,340,2013-09-02 16:35:00
11:55 AM,72.1,62.8,72,29.99,10.0,NW,4.6,-,N/A,,Overcast,310,2013-09-02 16:55:00
12:15 PM,75.6,62.4,64,29.99,10.0,NW,8.1,-,N/A,,Mostly Cloudy,310,2013-09-02 17:15:00
12:35 PM,75.0,61.5,63,29.99,10.0,West,6.9,-,N/A,,Mostly Cloudy,280,2013-09-02 17:35:00
12:55 PM,77.4,61.0,57,29.99,10.0,WNW,9.2,-,N/A,,Mostly Cloudy,300,2013-09-02 17:55:00
1:15 PM,77.4,59.2,53,29.99,10.0,WNW,9.2,-,N/A,,Scattered Clouds,300,2013-09-02 18:15:00
1:35 PM,77.7,58.6,52,29.98,10.0,NW,9.2,18.4,N/A,,Scattered Clouds,320,2013-09-02 18:35:00
1:55 PM,77.9,58.5,51,29.98,10.0,West,6.9,16.1,N/A,,Scattered Clouds,280,2013-09-02 18:55:00
2:15 PM,78.4,57.9,49,29.98,10.0,NW,9.2,-,N/A,,Mostly Cloudy,320,2013-09-02 19:15:00
2:35 PM,78.8,57.2,47,29.97,10.0,NW,10.4,-,N/A,,Scattered Clouds,310,2013-09-02 19:35:00
2:55 PM,79.0,57.2,47,29.97,10.0,WNW,8.1,-,N/A,,Scattered Clouds,300,2013-09-02 19:55:00
3:15 PM,79.0,57.0,47,29.97,10.0,NW,9.2,-,N/A,,Scattered Clouds,310,2013-09-02 20:15:00
3:35 PM,78.8,55.0,44,29.96,10.0,WNW,9.2,-,N/A,,Clear,300,2013-09-02 20:35:00
3:55 PM,78.4,54.1,43,29.96,10.0,WNW,9.2,-,N/A,,Clear,290,2013-09-02 20:55:00
4:15 PM,78.3,52.9,41,29.96,10.0,NW,9.2,-,N/A,,Clear,310,2013-09-02 21:15:00
4:35 PM,77.9,53.2,42,29.96,10.0,NW,9.2,-,N/A,,Clear,320,2013-09-02 21:35:00
4:55 PM,77.5,51.8,41,29.96,10.0,NW,9.2,-,N/A,,Clear,310,2013-09-02 21:55:00
5:15 PM,77.0,52.9,43,29.96,10.0,NW,9.2,-,N/A,,Clear,320,2013-09-02 22:15:00
5:35 PM,76.1,54.0,46,29.96,10.0,NW,6.9,-,N/A,,Clear,310,2013-09-02 22:35:00
5:55 PM,75.7,54.3,47,29.96,10.0,NW,8.1,-,N/A,,Clear,320,2013-09-02 22:55:00
6:15 PM,75.2,54.3,48,29.96,10.0,NNW,8.1,-,N/A,,Clear,330,2013-09-02 23:15:00
6:35 PM,73.9,55.2,52,29.96,10.0,NNW,4.6,-,N/A,,Clear,330,2013-09-02 23:35:00
6:55 PM,72.5,55.4,55,29.96,10.0,NNW,5.8,-,N/A,,Clear,330,2013-09-02 23:55:00
7:15 PM,70.0,56.1,61,29.96,10.0,NW,4.6,-,N/A,,Clear,320,2013-09-03 00:15:00
7:35 PM,67.8,56.7,67,29.97,10.0,NW,4.6,-,N/A,,Clear,320,2013-09-03 00:35:00
7:55 PM,66.2,56.8,72,29.97,10.0,NW,4.6,-,N/A,,Clear,320,2013-09-03 00:55:00
8:01 PM,64.4,57.2,77,29.97,10.0,NW,4.6,-,N/A,,Clear,320,2013-09-03 01:01:00
8:15 PM,64.6,56.3,74,29.98,10.0,NNW,5.8,-,N/A,,Clear,330,2013-09-03 01:15:00
8:21 PM,64.4,55.4,73,29.98,10.0,NNW,5.8,-,N/A,,Clear,330,2013-09-03 01:21:00
8:35 PM,64.4,55.4,73,29.98,10.0,NNW,5.8,-,N/A,,Clear,330,2013-09-03 01:35:00
8:41 PM,64.4,55.4,73,29.98,10.0,NNW,5.8,-,N/A,,Clear,340,2013-09-03 01:41:00
8:55 PM,62.8,54.9,75,29.99,10.0,NNW,4.6,-,N/A,,Clear,340,2013-09-03 01:55:00
9:01 PM,62.6,55.4,77,29.99,10.0,NNW,5.8,-,N/A,,Clear,340,2013-09-03 02:01:00
9:15 PM,60.8,54.7,80,29.99,10.0,North,5.8,-,N/A,,Clear,350,2013-09-03 02:15:00
9:21 PM,60.8,55.4,82,29.99,10.0,North,6.9,-,N/A,,Clear,350,2013-09-03 02:21:00
9:35 PM,60.4,54.7,81,30.00,10.0,North,6.9,-,N/A,,Clear,350,2013-09-03 02:35:00
9:41 PM,60.8,55.4,82,30.00,10.0,North,6.9,-,N/A,,Clear,350,2013-09-03 02:41:00
9:55 PM,60.1,54.9,83,30.00,10.0,North,8.1,-,N/A,,Clear,350,2013-09-03 02:55:00
10:01 PM,60.8,55.4,82,30.00,10.0,North,6.9,-,N/A,,Clear,350,2013-09-03 03:01:00
10:15 PM,57.0,53.6,88,30.01,10.0,North,5.8,-,N/A,,Clear,10,2013-09-03 03:15:00
10:21 PM,57.2,53.6,88,30.01,10.0,North,6.9,-,N/A,,Clear,360,2013-09-03 03:21:00
10:35 PM,59.5,55.8,87,30.01,10.0,North,5.8,-,N/A,,Clear,360,2013-09-03 03:35:00
10:41 PM,59.0,55.4,88,30.01,10.0,North,6.9,-,N/A,,Clear,360,2013-09-03 03:41:00
10:55 PM,58.8,55.8,90,30.02,10.0,North,8.1,-,N/A,,Clear,10,2013-09-03 03:55:00
11:01 PM,59.0,55.4,88,30.02,10.0,North,8.1,-,N/A,,Clear,10,2013-09-03 04:01:00
11:15 PM,58.8,55.8,90,30.01,10.0,North,8.1,-,N/A,,Clear,10,2013-09-03 04:15:00
11:21 PM,57.2,55.4,94,30.02,10.0,North,6.9,-,N/A,,Clear,10,2013-09-03 04:21:00
11:35 PM,57.6,55.0,91,30.02,10.0,North,6.9,-,N/A,,Clear,10,2013-09-03 04:35:00
11:41 PM,57.2,55.4,94,30.02,10.0,NNE,6.9,-,N/A,,Clear,20,2013-09-03 04:41:00
11:55 PM,56.5,54.7,94,30.02,10.0,NNE,8.1,-,N/A,,Clear,20,2013-09-03 04:55:00